Powrót do katalogu

DELTA 1 DEB

AktywnySSO
NORAD 8319·DEBRIS·🇺🇸 United States

Wystrzelony Jul 23, 1972 z Vandenberg Space Force Base

Loading…

Następne Przeloty (najbliższe 24 godziny)

TLE

ŚwieżeSource: Space-Track

Epoka: Sep 14, 2026, 14:33 UTC

1 08319U 72058EM  26257.60654398  .00000413  00000-0  97664-4 0  9990
2 08319  98.6042 318.2306 0133047 165.2703 195.2429 14.54543308830669

Śledź DELTA 1 DEB w czasie rzeczywistym z AllMySat

Download on the App Store